Flag for U.S.A. Weather past 2 weeks in Salem, Oregon, U.S.A.

Now
59 °F

Clear.


Feels Like: 59 °F
Forecast: 57 / 81 °F
Wind: No wind

Location: McNary Field

Current Time: Sep 19, 2014 at 2:55:51 AM

Latest Report: Sep 19, 2014 at 1:56 AM


Visibility: 10 mi

Pressure: 30.01 "Hg

Humidity: 84%

Dew point: 54 °F

Location of SalemLocation

Historic Weather in Salem — Graph

°F

Salem temperature yesterday

Maximum temperature yesterday: 74 °F (at 3:56 PM)
Minimum temperature yesterday: 61 °F (at 3:56 AM)
Average temperature yesterday: 66 °F

Past Weeks' High & Low Weather Summary

 TemperatureHumidityPressure
High96 °F (Sep 6, 3:56 PM)89% (Sep 10, 5:56 AM)30.17 "Hg (Sep 10, 5:56 AM)
Low48 °F (Sep 14, 6:56 AM)10% (Sep 6, 3:56 PM)29.68 "Hg (Sep 17, 4:56 PM)
Average68 °F50%29.90 "Hg
* Reported Sep 4 12:56 AM — Sep 19 12:56 AM, Salem, Weather by CustomWeather, © 2014

Note: Actual official high and low records may vary slightly from our data, if they occured in-between our weather recording intervals... More about our weather records

Advertising

Salem weather history for previous 24 hours

 ConditionsComfort  
Time TempWeatherWind HumidityBarometerVisibility
12:56 AM
Sep 19
60 °FClear.No wind80%29.99 "Hg10 mi
11:56 PM
Sep 18
63 °FClear.3 mph75%29.99 "Hg10 mi
10:56 PM65 °FClear.5 mph70%29.97 "Hg10 mi
9:56 PM67 °FPassing clouds.6 mph66%29.95 "Hg10 mi
8:56 PM70 °FPassing clouds.8 mph61%29.94 "Hg10 mi
7:56 PM72 °FOvercast.No wind55%29.91 "Hg10 mi
6:56 PM73 °FOvercast.No wind53%29.89 "Hg10 mi
5:56 PM73 °FOvercast.7 mph51%29.88 "Hg10 mi
4:56 PM74 °FMostly cloudy.6 mph50%29.87 "Hg10 mi
3:56 PM74 °FPartly sunny.5 mph52%29.86 "Hg10 mi
2:56 PM73 °FPartly sunny.7 mph55%29.86 "Hg10 mi
1:56 PM72 °FScattered clouds.7 mph59%29.86 "Hg10 mi
12:56 PM69 °FOvercast.3 mph68%29.87 "Hg10 mi
11:56 AM66 °FCloudy.3 mph73%29.86 "Hg10 mi
10:56 AM64 °FOvercast.6 mph81%29.85 "Hg10 mi
9:56 AM62 °FMostly cloudy.3 mph83%29.84 "Hg10 mi
8:56 AM61 °FLight rain. More clouds than sun.3 mph87%29.82 "Hg10 mi
7:56 AM61 °FLight rain. Cloudy.5 mph83%29.80 "Hg8 mi
6:56 AM62 °FOvercast.6 mph78%29.77 "Hg10 mi
5:56 AM62 °FOvercast.3 mph78%29.75 "Hg10 mi
4:56 AM62 °FPassing clouds.No wind80%29.74 "Hg10 mi
3:56 AM61 °FPassing clouds.3 mph83%29.72 "Hg10 mi
2:56 AM62 °FMostly cloudy.No wind80%29.72 "Hg10 mi
Weather by CustomWeather, © 2014

See weather overviewHow to use our weather pages